| time (UTC) | temp C | wind direction | speed KPH | gust KPH | rain 1hr cm | rain 24hr cm | rain mn cm | humidity % | barometer mb |
| 20260504050727 | 6 | 327 | 0.0 | 0.0 | 0.13 | 0.23 | 0.13 | 77 | 1015.5 |
| 20260504050227 | 6 | 327 | 0.0 | 0.0 | 0.10 | 0.20 | 0.10 | 76 | 1015.4 |
| 20260504045727 | 6 | 327 | 0.0 | 0.0 | 0.10 | 0.20 | 0.10 | 75 | 1015.6 |
| 20260504045227 | 6 | 327 | 0.0 | 0.0 | 0.08 | 0.18 | 0.08 | 74 | 1015.6 |
| 20260504045014 | 6 | 327 | 0.0 | 0.0 | 0.08 | 0.18 | 0.08 | 73 | 1015.5 |
| 20260504044728 | 6 | 327 | 0.0 | 0.0 | 0.08 | 0.18 | 0.08 | 73 | 1015.6 |
| 20260504044227 | 6 | 327 | 0.0 | 0.0 | 0.08 | 0.18 | 0.08 | 73 | 1015.5 |
| 20260504043728 | 6 | 327 | 0.0 | 0.0 | 0.05 | 0.15 | 0.05 | 71 | 1015.5 |
| 20260504043227 | 7 | 327 | 0.0 | 0.0 | 0.03 | 0.13 | 0.03 | 70 | 1015.5 |
| 20260504042728 | 7 | 327 | 0.0 | 0.0 | 0.00 | 0.10 | 0.00 | 70 | 1015.5 |
| 20260504042227 | 7 | 327 | 0.0 | 0.0 | 0.03 | 0.10 | 0.00 | 67 | 1015.4 |
| 20260504041727 | 7 | 327 | 0.0 | 0.0 | 0.08 | 0.10 | 0.00 | 68 | 1015.3 |
| 20260504041228 | 7 | 327 | 0.0 | 0.0 | 0.08 | 0.10 | 0.00 | 68 | 1015.2 |
| 20260504040727 | 7 | 327 | 0.0 | 0.0 | 0.08 | 0.10 | 0.00 | 68 | 1015.0 |
| 20260504040227 | 7 | 327 | 0.0 | 0.0 | 0.08 | 0.10 | 0.00 | 68 | 1015.2 |
| 20260504035729 | 7 | 327 | 0.0 | 0.0 | 0.08 | 0.10 | 0.00 | 70 | 1015.2 |
| 20260504035227 | 7 | 327 | 0.0 | 0.0 | 0.08 | 0.10 | 0.00 | 69 | 1015.2 |
| 20260504034728 | 7 | 327 | 0.0 | 0.0 | 0.08 | 0.10 | 0.13 | 67 | 1015.2 |
| 20260504034227 | 7 | 327 | 0.0 | 0.0 | 0.08 | 0.10 | 0.13 | 67 | 1015.1 |
| 20260504033727 | 7 | 327 | 0.0 | 0.0 | 0.08 | 0.10 | 0.13 | 68 | 1015.1 |
| 20260504033227 | 7 | 327 | 0.0 | 0.0 | 0.08 | 0.13 | 0.13 | 67 | 1015.0 |
| 20260504032728 | 7 | 327 | 0.0 | 0.0 | 0.08 | 0.13 | 0.13 | 67 | 1015.0 |
| 20260504032227 | 7 | 327 | 0.0 | 0.0 | 0.03 | 0.08 | 0.08 | 68 | 1015.0 |
| 20260504031727 | 7 | 327 | 0.0 | 0.0 | 0.00 | 0.05 | 0.05 | 68 | 1014.9 |
| 20260504031227 | 7 | 327 | 0.0 | 0.0 | 0.00 | 0.05 | 0.05 | 68 | 1014.9 |
| 20260504030727 | 7 | 327 | 0.0 | 0.0 | 0.00 | 0.05 | 0.05 | 68 | 1014.9 |
| 20260504030227 | 8 | 327 | 0.0 | 0.0 | 0.00 | 0.05 | 0.05 | 64 | 1014.9 |
| 20260504025727 | 8 | 327 | 0.0 | 0.0 | 0.00 | 0.05 | 0.05 | 64 | 1014.9 |
| 20260504025227 | 8 | 327 | 0.0 | 0.0 | 0.00 | 0.05 | 0.05 | 62 | 1014.9 |
| 20260504024227 | 8 | 327 | 0.0 | 0.0 | 0.00 | 0.05 | 0.05 | 63 | 1014.9 |
| 20260504023727 | 8 | 327 | 0.0 | 0.0 | 0.00 | 0.05 | 0.05 | 63 | 1014.8 |
| 20260504023230 | 8 | 327 | 0.0 | 0.0 | 0.00 | 0.20 | 0.05 | 63 | 1014.8 |
| 20260504022727 | 8 | 327 | 0.0 | 0.0 | 0.00 | 0.20 | 0.05 | 61 | 1014.8 |
| 20260504022227 | 8 | 327 | 0.0 | 0.0 | 0.00 | 0.20 | 0.05 | 61 | 1014.8 |
| 20260504021727 | 8 | 327 | 0.0 | 0.0 | 0.00 | 0.20 | 0.05 | 61 | 1014.8 |
| 20260504021227 | 8 | 327 | 0.0 | 0.0 | 0.00 | 0.20 | 0.05 | 60 | 1014.7 |
| 20260504020727 | 8 | 327 | 0.0 | 0.0 | 0.00 | 0.20 | 0.05 | 62 | 1014.8 |
| 20260504020228 | 8 | 327 | 0.0 | 0.0 | 0.00 | 0.20 | 0.05 | 61 | 1014.8 |
| 20260504015727 | 9 | 327 | 0.0 | 0.0 | 0.00 | 0.20 | 0.05 | 59 | 1014.8 |
| 20260504015227 | 9 | 327 | 0.0 | 0.0 | 0.00 | 0.20 | 0.05 | 57 | 1014.8 |
| 20260504014727 | 9 | 327 | 0.0 | 0.0 | 0.00 | 0.20 | 0.05 | 56 | 1014.8 |
| 20260504014229 | 9 | 327 | 0.0 | 0.0 | 0.00 | 0.20 | 0.05 | 55 | 1014.7 |
| 20260504013727 | 10 | 327 | 0.0 | 0.0 | 0.00 | 0.20 | 0.05 | 54 | 1014.7 |
| 20260504013227 | 10 | 327 | 0.0 | 0.0 | 0.00 | 0.28 | 0.05 | 54 | 1014.7 |
| 20260504012728 | 10 | 327 | 0.0 | 0.0 | 0.00 | 0.28 | 0.05 | 53 | 1014.7 |
| 20260504011728 | 10 | 327 | 0.0 | 0.0 | 0.00 | 0.28 | 0.05 | 50 | 1014.5 |
| 20260504011228 | 10 | 327 | 0.0 | 0.0 | 0.00 | 0.28 | 0.05 | 49 | 1014.5 |
| 20260504010727 | 11 | 327 | 0.0 | 0.0 | 0.00 | 0.28 | 0.05 | 50 | 1014.5 |
| 20260504010227 | 11 | 327 | 0.0 | 0.0 | 0.00 | 0.28 | 0.05 | 49 | 1014.4 |
| 20260504005727 | 11 | 327 | 0.0 | 0.0 | 0.00 | 0.28 | 0.05 | 49 | 1014.4 |
| 20260504005228 | 11 | 327 | 0.0 | 0.0 | 0.00 | 0.28 | 0.05 | 49 | 1014.4 |
| 20260504004727 | 11 | 327 | 0.0 | 0.0 | 0.00 | 0.28 | 0.05 | 48 | 1014.3 |
| 20260504004227 | 12 | 327 | 0.0 | 0.0 | 0.00 | 0.28 | 0.05 | 47 | 1014.3 |
| 20260504003728 | 12 | 327 | 0.0 | 0.0 | 0.00 | 0.28 | 0.05 | 44 | 1014.2 |
| 20260504003227 | 12 | 327 | 0.0 | 0.0 | 0.00 | 0.30 | 0.05 | 42 | 1014.2 |
| 20260504002727 | 12 | 327 | 0.0 | 0.0 | 0.00 | 0.30 | 0.05 | 42 | 1014.1 |
| 20260504002227 | 13 | 327 | 0.0 | 0.0 | 0.00 | 0.30 | 0.05 | 41 | 1014.0 |
| 20260504001730 | 13 | 327 | 0.0 | 0.0 | 0.00 | 0.30 | 0.05 | 40 | 1014.0 |
| 20260504001229 | 13 | 327 | 0.0 | 0.0 | 0.00 | 0.30 | 0.05 | 39 | 1014.0 |
| 20260504000727 | 13 | 327 | 0.0 | 0.0 | 0.00 | 0.30 | 0.05 | 38 | 1013.9 |
| 20260504000227 | 13 | 327 | 0.0 | 0.0 | 0.00 | 0.30 | 0.05 | 39 | 1013.9 |
| 20260503235727 | 14 | 327 | 0.0 | 0.0 | 0.00 | 0.30 | 0.05 | 37 | 1013.9 |
| 20260503235227 | 14 | 327 | 0.0 | 0.0 | 0.00 | 0.30 | 0.05 | 38 | 1013.8 |
| 20260503234728 | 14 | 327 | 0.0 | 3.2 | 0.00 | 0.30 | 0.05 | 36 | 1013.7 |
| 20260503234227 | 14 | 46 | 1.6 | 3.2 | 0.00 | 0.30 | 0.05 | 35 | 1013.6 |
| 20260503233727 | 15 | 8 | 0.0 | 8.0 | 0.00 | 0.30 | 0.05 | 35 | 1013.6 |
| 20260503233227 | 14 | 70 | 0.0 | 8.0 | 0.00 | 0.30 | 0.05 | 34 | 1013.5 |
| 20260503232733 | 15 | 9 | 0.0 | 3.2 | 0.00 | 0.30 | 0.05 | 35 | 1013.5 |
| 20260503232232 | 15 | 0 | 0.0 | 4.8 | 0.00 | 0.30 | 0.05 | 35 | 1013.5 |
| 20260503231732 | 15 | 40 | 0.0 | 4.8 | 0.00 | 0.30 | 0.05 | 34 | 1013.5 |
| 20260503231233 | 15 | 8 | 0.0 | 8.0 | 0.00 | 0.30 | 0.05 | 33 | 1013.5 |
| 20260503225731 | 15 | 271 | 0.0 | 6.4 | 0.00 | 0.30 | 0.05 | 33 | 1013.5 |
| 20260503225230 | 15 | 291 | 1.6 | 14.5 | 0.00 | 0.30 | 0.05 | 32 | 1013.5 |
| 20260503224730 | 15 | 0 | 1.6 | 6.4 | 0.00 | 0.30 | 0.05 | 33 | 1013.6 |
| 20260503224227 | 15 | 15 | 0.0 | 9.7 | 0.00 | 0.30 | 0.05 | 34 | 1013.5 |
| 20260503223729 | 15 | 313 | 0.0 | 9.7 | 0.00 | 0.30 | 0.05 | 32 | 1013.5 |
| 20260503223228 | 15 | 5 | 4.8 | 12.9 | 0.00 | 0.30 | 0.05 | 31 | 1013.4 |
| 20260503222231 | 15 | 9 | 4.8 | 14.5 | 0.00 | 0.30 | 0.05 | 31 | 1013.5 |
| 20260503221727 | 15 | 70 | 0.0 | 6.4 | 0.00 | 0.30 | 0.05 | 32 | 1013.4 |
| 20260503221227 | 15 | 9 | 4.8 | 6.4 | 0.00 | 0.30 | 0.05 | 32 | 1013.5 |
| 20260503220727 | 15 | 326 | 1.6 | 9.7 | 0.00 | 0.30 | 0.05 | 32 | 1013.5 |
| 20260503220228 | 15 | 319 | 1.6 | 12.9 | 0.00 | 0.30 | 0.05 | 31 | 1013.5 |
| 20260503215727 | 15 | 4 | 1.6 | 14.5 | 0.00 | 0.30 | 0.05 | 32 | 1013.5 |
| 20260503215227 | 15 | 67 | 8.0 | 12.9 | 0.00 | 0.30 | 0.05 | 31 | 1013.5 |
| 20260503214728 | 15 | 331 | 3.2 | 14.5 | 0.00 | 0.30 | 0.05 | 31 | 1013.4 |
| 20260503214227 | 16 | 5 | 6.4 | 17.7 | 0.00 | 0.30 | 0.05 | 30 | 1013.5 |
| 20260503213728 | 16 | 25 | 4.8 | 14.5 | 0.00 | 0.30 | 0.05 | 31 | 1013.5 |
| 20260503213227 | 16 | 33 | 11.3 | 12.9 | 0.00 | 0.30 | 0.05 | 29 | 1013.5 |
| 20260503212727 | 16 | 286 | 1.6 | 12.9 | 0.00 | 0.30 | 0.05 | 30 | 1013.5 |
| 20260503212228 | 16 | 11 | 3.2 | 12.9 | 0.00 | 0.30 | 0.05 | 33 | 1013.4 |
| 20260503211727 | 15 | 70 | 6.4 | 12.9 | 0.00 | 0.30 | 0.05 | 31 | 1013.4 |
| 20260503211227 | 15 | 285 | 1.6 | 8.0 | 0.00 | 0.30 | 0.05 | 32 | 1013.4 |
| 20260503210728 | 15 | 11 | 0.0 | 9.7 | 0.00 | 0.30 | 0.05 | 30 | 1013.4 |
| 20260503210228 | 15 | 90 | 1.6 | 12.9 | 0.00 | 0.30 | 0.05 | 32 | 1013.5 |
| 20260503205727 | 16 | 16 | 4.8 | 12.9 | 0.00 | 0.30 | 0.05 | 31 | 1013.6 |
| 20260503205227 | 16 | 1 | 6.4 | 12.9 | 0.00 | 0.30 | 0.05 | 31 | 1013.5 |
| 20260503204727 | 15 | 309 | 9.7 | 17.7 | 0.00 | 0.30 | 0.05 | 32 | 1013.5 |
| 20260503204227 | 15 | 22 | 12.9 | 22.5 | 0.00 | 0.30 | 0.05 | 33 | 1013.5 |
| 20260503203731 | 15 | 67 | 0.0 | 20.9 | 0.00 | 0.30 | 0.05 | 31 | 1013.5 |
| 20260503203227 | 15 | 28 | 8.0 | 17.7 | 0.00 | 0.30 | 0.05 | 35 | 1013.6 |
| 20260503202727 | 15 | 94 | 1.6 | 16.1 | 0.00 | 0.30 | 0.05 | 34 | 1013.6 |
| 20260503202229 | 15 | 198 | 0.0 | 14.5 | 0.00 | 0.30 | 0.05 | 33 | 1013.7 |
| 20260503201727 | 15 | 271 | 14.5 | 22.5 | 0.00 | 0.30 | 0.05 | 31 | 1013.8 |
| 20260503201227 | 15 | 16 | 16.1 | 24.1 | 0.00 | 0.30 | 0.05 | 30 | 1013.8 |
| 20260503200727 | 15 | 316 | 3.2 | 17.7 | 0.00 | 0.30 | 0.05 | 33 | 1013.9 |
| 20260503200227 | 15 | 22 | 6.4 | 19.3 | 0.00 | 0.30 | 0.05 | 36 | 1013.9 |
| 20260503195728 | 15 | 347 | 3.2 | 20.9 | 0.00 | 0.30 | 0.05 | 36 | 1014.0 |
| 20260503195228 | 14 | 91 | 11.3 | 19.3 | 0.00 | 0.30 | 0.05 | 32 | 1014.1 |
| 20260503194727 | 15 | 33 | 4.8 | 24.1 | 0.00 | 0.30 | 0.05 | 35 | 1014.2 |
| 20260503194227 | 15 | 248 | 0.0 | 9.7 | 0.00 | 0.30 | 0.05 | 34 | 1014.2 |
| 20260503193727 | 14 | 345 | 4.8 | 16.1 | 0.00 | 0.30 | 0.05 | 39 | 1014.3 |
| 20260503193227 | 15 | 0 | 3.2 | 20.9 | 0.00 | 0.30 | 0.05 | 34 | 1014.3 |
| 20260503192727 | 15 | 30 | 4.8 | 17.7 | 0.00 | 0.30 | 0.05 | 34 | 1014.3 |
| 20260503192227 | 15 | 47 | 4.8 | 20.9 | 0.00 | 0.30 | 0.05 | 37 | 1014.4 |
| 20260503191727 | 15 | 56 | 1.6 | 14.5 | 0.00 | 0.30 | 0.05 | 38 | 1014.4 |
| 20260503191227 | 15 | 323 | 3.2 | 16.1 | 0.00 | 0.30 | 0.05 | 35 | 1014.4 |
| 20260503190727 | 15 | 330 | 4.8 | 12.9 | 0.00 | 0.30 | 0.05 | 34 | 1014.4 |
| 20260503185727 | 15 | 23 | 12.9 | 19.3 | 0.00 | 0.30 | 0.05 | 35 | 1014.6 |
| 20260503185227 | 15 | 319 | 12.9 | 27.4 | 0.00 | 0.30 | 0.05 | 39 | 1014.6 |
| 20260503184729 | 14 | 70 | 4.8 | 17.7 | 0.00 | 0.30 | 0.05 | 36 | 1014.6 |
| 20260503184228 | 15 | 12 | 8.0 | 24.1 | 0.00 | 0.30 | 0.05 | 36 | 1014.8 |
| 20260503183727 | 15 | 73 | 3.2 | 16.1 | 0.00 | 0.30 | 0.05 | 35 | 1014.8 |
| 20260503183227 | 15 | 30 | 6.4 | 27.4 | 0.00 | 0.30 | 0.05 | 34 | 1014.9 |
| 20260503182728 | 14 | 36 | 1.6 | 17.7 | 0.00 | 0.30 | 0.05 | 40 | 1014.8 |
| 20260503182227 | 14 | 330 | 0.0 | 11.3 | 0.00 | 0.30 | 0.05 | 38 | 1015.0 |
| 20260503181728 | 14 | 61 | 4.8 | 17.7 | 0.00 | 0.30 | 0.05 | 38 | 1014.9 |
| 20260503181227 | 14 | 350 | 3.2 | 14.5 | 0.00 | 0.30 | 0.05 | 39 | 1015.0 |
| 20260503180728 | 13 | 36 | 8.0 | 25.7 | 0.00 | 0.30 | 0.05 | 38 | 1014.9 |
| 20260503180227 | 14 | 11 | 4.8 | 20.9 | 0.00 | 0.30 | 0.05 | 36 | 1015.0 |
| 20260503175727 | 14 | 29 | 1.6 | 22.5 | 0.00 | 0.30 | 0.05 | 35 | 1015.0 |
| 20260503175228 | 14 | 28 | 4.8 | 11.3 | 0.00 | 0.30 | 0.05 | 38 | 1015.0 |
| 20260503174728 | 13 | 12 | 4.8 | 20.9 | 0.00 | 0.30 | 0.05 | 38 | 1015.1 |
| 20260503174237 | 13 | 90 | 6.4 | 24.1 | 0.00 | 0.30 | 0.05 | 38 | 1015.0 |
| 20260503173728 | 13 | 101 | 9.7 | 27.4 | 0.03 | 0.30 | 0.05 | 39 | 1015.0 |
| 20260503173228 | 13 | 18 | 11.3 | 17.7 | 0.03 | 0.30 | 0.05 | 36 | 1015.0 |
| 20260503172728 | 13 | 354 | 11.3 | 24.1 | 0.03 | 0.30 | 0.05 | 40 | 1015.2 |
| 20260503172228 | 13 | 358 | 8.0 | 19.3 | 0.03 | 0.30 | 0.05 | 39 | 1015.2 |
| 20260503171228 | 13 | 90 | 4.8 | 17.7 | 0.03 | 0.30 | 0.05 | 40 | 1015.4 |
| 20260503170728 | 13 | 91 | 6.4 | 22.5 | 0.03 | 0.30 | 0.05 | 39 | 1015.3 |
| 20260503170228 | 13 | 88 | 8.0 | 14.5 | 0.03 | 0.30 | 0.05 | 39 | 1015.3 |
| 20260503150729 | 11 | 26 | 9.7 | 11.3 | 0.00 | 0.30 | 0.03 | 46 | 1015.7 |
| 20260503150229 | 11 | 21 | 6.4 | 17.7 | 0.00 | 0.30 | 0.03 | 46 | 1015.9 |
| 20260503140229 | 9 | 120 | 8.0 | 25.7 | 0.00 | 0.30 | 0.03 | 53 | 1016.2 |
| 20260503131228 | 8 | 75 | 1.6 | 20.9 | 0.00 | 0.30 | 0.03 | 52 | 1016.1 |
| 20260503130728 | 8 | 156 | 9.7 | 19.3 | 0.00 | 0.30 | 0.03 | 52 | 1016.1 |
| 20260503130231 | 8 | 358 | 9.7 | 19.3 | 0.00 | 0.30 | 0.03 | 55 | 1016.0 |
| 20260503110728 | 6 | 29 | 6.4 | 9.7 | 0.00 | 0.30 | 0.03 | 67 | 1015.2 |
| 20260503110228 | 6 | 11 | 3.2 | 12.9 | 0.00 | 0.30 | 0.03 | 67 | 1015.1 |
| 20260503100228 | 5 | 21 | 8.0 | 11.3 | 0.00 | 0.30 | 0.03 | 70 | 1014.2 |
| 20260503090228 | 5 | 337 | 3.2 | 11.3 | 0.00 | 0.30 | 0.03 | 69 | 1013.7 |
| 20260503081228 | 6 | 82 | 0.0 | 8.0 | 0.00 | 0.30 | 0.03 | 69 | 1013.4 |
| 20260503080729 | 6 | 37 | 1.6 | 9.7 | 0.00 | 0.30 | 0.03 | 69 | 1013.4 |
| 20260503080230 | 6 | 22 | 0.0 | 9.7 | 0.00 | 0.30 | 0.03 | 69 | 1013.3 |
| 20260503072731 | 6 | 14 | 1.6 | 9.7 | 0.00 | 0.33 | 0.03 | 67 | 1013.0 |
| 20260503072228 | 6 | 25 | 3.2 | 9.7 | 0.00 | 0.33 | 0.03 | 67 | 1012.9 |
| 20260503071732 | 6 | 21 | 0.0 | 8.0 | 0.00 | 0.33 | 0.03 | 67 | 1012.9 |
| 20260503071230 | 6 | 35 | 0.0 | 4.8 | 0.00 | 0.33 | 0.03 | 67 | 1012.9 |
| 20260503070728 | 6 | 35 | 0.0 | 11.3 | 0.00 | 0.33 | 0.03 | 66 | 1012.8 |
| 20260503070228 | 6 | 25 | 0.0 | 11.3 | 0.00 | 0.33 | 0.03 | 66 | 1012.7 |
| 20260503060230 | 7 | 19 | 11.3 | 11.3 | 0.00 | 0.33 | 0.03 | 67 | 1012.8 |
| 20260503054728 | 7 | 26 | 0.0 | 9.7 | 0.00 | 0.33 | 0.03 | 67 | 1012.9 |
| 20260503054229 | 7 | 5 | 4.8 | 8.0 | 0.00 | 0.33 | 0.03 | 67 | 1012.9 |
| 20260503053730 | 7 | 32 | 1.6 | 9.7 | 0.00 | 0.33 | 0.03 | 67 | 1012.9 |